GSAT0209 (GALILEO 12)

Last updated on Wed Aug 19 2026 00:02:49 GMT+0000 (Coordinated Universal Time)

1 41174U 15079A 26226.69760117 -.00000015 00000+0 00000+0 0 9999 2 41174 55.8619 99.6558 0004288 5.8364 354.2590 1.70473757 65777
UTC large
Height (km)
Speed (km/s)
/
Latitude / Longitude
Inclination (degrees)
Orbital Period (minutes)
Azimuth
Elevation
Range (km)
Doppler Factor

Next 0 passes for location: London (51.5072 / 0.1276)

No passes found over London.
GSAT0209 (GALILEO 12)